Location: Unspecified
(43.3830°N, 0.0000°E)
Time: 01:46:20
(UTC+00:00)

Transit 2A - Pass Details

Date: 20 June 2019
Orbit: 596 x 962 km, 66.7° (Epoch: 18 August)

Event Time Altitude Azimuth Distance (km) Brightness Sun altitude
Exits shadow 23:22:05 24° 114° (ESE) 1,868 7.7 -22.6°
Maximum altitude 23:22:36 24° 106° (ESE) 1,858 7.7 -22.6°
Drops below altitude 10° 23:27:32 10° 55° (NE) 2,685 9.1 -22.7°
Sets 23:30:30 0° 43° (NE) 3,608 10.0 -22.8°
